Location: *
(43.9900°N, 3.4811°E)
Time: 01:57:45
(UTC+00:00)

USA 229 - Pass Details

Date: 25 August 2019
Orbit: 1003 x 1209 km, 63.5° (Epoch: 08 October)

Event Time Altitude Azimuth Distance (km) Brightness Sun altitude
Rises 20:57:57 0° 322° (NW) 3,953 8.1 -23.1°
Reaches altitude 10° 21:00:35 10° 322° (NW) 3,020 7.1 -23.5°
Maximum altitude 21:07:51 84° 236° (SW) 1,181 3.8 -24.4°
Enters shadow 21:10:19 47° 153° (SSE) 1,525 4.0 -24.7°
